"Pseudo-MPEC" for P10HL8X

Created 2018 Jun 17 15:18:12 UT using Find_Orb

Click here for an explanation of pseudo-MPECs

 
 Astrometry: 
     P10HL8X KC2018 05 31,pAstrometry%B/;RPe#j`:5Fo(r4W:?.?fL/te;kj8TD:owjZT4F51
     P10HL8X  C2018 06 12tHJ@=,l+c,Kq%kw5fb*1,BeQ]4('n6B^@cVLUajbf;AX9VxUa/b]F51
     P10HL8X  C2018 06 12NmtbO0erRI8oYKu.gaJbs=?qrZZZ=b'8$VnhAfAEXjXv;S+\o/EhF51
     P10HL8X  C2018 06 12L:DRNYok:aoq/^luYk-IJ*?#iULxToJL/H$7[N(v5RmEj9tI+(LUF51
     P10HL8X  C2018 06 122k2U!_SU.W(=Y,.;4kkJw8IgQCj6%kkbXFcqyr%0Tvj;^_OOPyLhF51
     P10HL8X KC2018 06 12.97243 14 23 35.64 +65 14 35.5                VNEOCPJ95
     P10HL8X KC2018 06 12.97988 14 23 36.17 +65 14 12.2          20.4 GVNEOCPJ95
     P10HL8X KC2018 06 13.21106 14 23 56.17 +65 01 54.5          20.6 RqNEOCPG58
     P10HL8X KC2018 06 13.21868 14 23 56.62 +65 01 29.3          20.3 RqNEOCPG58
     P10HL8X KC2018 06 13.22802 14 23 57.15 +65 01 01.3          19.7 RqNEOCPG58
     P10HL8X IC2018 06 139sF]0%Uqb3=%^qQc',9KGx0vM`PT(RGVR+fX+AOG/Fm=W1EcJpdHL01
     P10HL8X KC2018 06 13';PAk*$wQZ*6uukv*kR/4cTwg$j_W@[H$_y/s)FsEAnjS\@+k.HyL01
     P10HL8X KC2018 06 13`i#Y=YSx[W]4g03)=redacted;.Q.L*DGiiUkh;[EqnbPH`e%wF-L01
     P10HL8X KC2018 06 14Y65hBCnLA;p0KaR@vx8k:B9!.rR.?`RP;tr9iyZ^IEcdw*aOBRjdH21
     P10HL8X KC2018 06 14EEL=wZ67:ih0c:IRm]kp(T[Z^B/ZNyEsDqjv,'3FpU0YJYfqqWhSH21
     P10HL8X KC2018 06 141I3pEC*svOlu!\qa=*a3:rGd+3[jI0ULC%q@0jq96l:McUjG=X;5H21
     P10HL8X KC2018 06 14%%@8;w\d-kk*qb%[-vtChiJ+Do,;MHPR'KDBHZa/KR9vnr1!n`y6H36
     P10HL8X KC2018 06 14OIuM(ik*?weDA.FUIU[UI1IACK6)J2s_l^(]B5-FVomfrHGMK2wmH36
     P10HL8X  C2018 06 14.20856 14 25 17.82 +64 08 26.7          20.9 GUNEOCPI52
     P10HL8X  C2018 06 14.21044 14 25 18.04 +64 08 20.5          20.1 GUNEOCPI52
     P10HL8X  C2018 06 14.21233 14 25 18.06 +64 08 14.7          19.9 GUNEOCPI52
     P10HL8X KC2018 06 14/H]8Lc$E?dkWlOyHdaotVb:)d;VjNS]]UtP'7T'Wrr4?GhgeO\:_H36
     P10HL8X KC2018 06 14xTh=pE-DRD[.r15/f@85/W6wEVL[peZJ.Q@S8_\mTe]=+y^Dhm!%587
     P10HL8X KC2018 06 14j5p\+5pUCGPP_H6u))B@FM@*qbwMAAMVseekca'3qJZ!!sI7HtQH587
     P10HL8X KC2018 06 14;Ru5\Gw4Ns/UO!?7(RbRgc-:fx=lsHnhD#7kT%?M4tWimHK0XAMe587
     P10HL8X KC2018 06 14[9dx`7!.%!R\8Cjq,kOO^w!^-Y%ZD;MbmgynvXJN:L+4h#t3RIr)587
     P10HL8X KC2018 06 14.94600 14 26 17.14 +63 28 37.1                VNEOCPJ95
     P10HL8X KC2018 06 14.95844 14 26 18.00 +63 27 56.7                VNEOCPJ95
     P10HL8X KC2018 06 14J06)jJ(_wj,ejU;H%i=AoU8YOKeSwn#.*aR.ik+3wJWRe1/wS$yb204
     P10HL8X KC2018 06 14.97106 14 26 18.98 +63 27 15.2          20.7 GVNEOCPJ95
     P10HL8X KC2018 06 142lBwE?k'OcY],$B@VGQ.2W@u.MTa5Js'lp2;)9jFM'-QJMaqXp]6204
     P10HL8X KC2018 06 16j3x=g`,kY4^*npEwcjD6KQBOX)F6S^wK%:l?!]xiA(]kN[/rYyCdH21
     P10HL8X KC2018 06 16Asv%sf21m0\L$NkYfCHaL,STgbaId]v:p([MlyKFD*fBSNn_[w\ZH21
     P10HL8X KC2018 06 168+xu\8kRN3l@+Ek,DPrf)4B[6HXr(qWZF9rlE6@3\:\,$\QNEOCPH21

Station data:
(204) Schiaparelli Observatory  (N45.867933 E8.770800)  Italy.  Observer L.
   Buzzi. 0.60-m f/4.64 Newtonian + CCD.
(587) Sormano  (N45.882949 E9.229180)  Italy.  Observers F. Manca, A. Testa.
   Measurer F. Manca. 0.5-m + CCD.
(F51) Pan-STARRS 1, Haleakala  (N20.707235 W156.255910)  US/Hawaii.
   Observers N. Primak, A. Schultz, S. Watters, J. Thiel, T. Goggia. Measurer
   PS1 Science Consortium. 1.8-m Ritchey-Chrétien + CCD.
(G58) Chabot Observatory  (N37.819331 W122.182000)
   US/California.  Observer G. McKeegan. 0.9-m f/4.5 Schmidt-Cassegrain + CCD.
(H21) Astronomical Research Observatory, Westfield  (N39.483057 W87.968270)
   US/Illinois. 0.76-m f/3.0 astrograph + CCD.
(H36) Sandlot Observatory, Scranton  (N38.797693 W95.706400)  US/Kansas.
   Observer G. Hug. 0.56-m reflector + CCD.
(I52) Steward Observatory, Mt. Lemmon Station  (N32.442547 W110.788920)
   US/Arizona.  Observers B. M. Africano, E. J. Christensen, D. C. Fuls, A.
   R. Gibbs, A. D. Grauer, J. A. Johnson, R. A. Kowalski, S. M. Larson, G. J.
   Leonard, R. L. Seaman, F. C. Shelly. 1.0-m reflector + CCD.
(J95) Great Shefford  (N51.474969 W1.447003)  UK.  Observer P. Birtwhistle.
   0.40-m f/6.0 Schmidt-Cassegrain + CCD.
(L01) Višnjan Observatory, Tičan  (N45.290900 E13.749300)  Croatia.  Observer
   K. Korlević. 1.0-m f/2.9 reflector + CCD.

Orbital elements:  P10HL8X
   Perihelion 2018 Mar 28.452130 +/- 1.07 TT = 10:51:04 (JD 2458205.952130)
Epoch 2018 Jun 16.0 TT = JDT 2458285.5   Earth MOID: 0.3739   AutoNEOCP
M  14.33565 +/- 1.3                 (J2000 ecliptic)
n   0.18021424 +/- 0.0145           Peri.   54.27105 +/- 1.2
a   3.10415433 +/- 0.167            Node   103.01589 +/- 0.42
e   0.6213123 +/- 0.0167            Incl.   56.69285 +/- 0.29
P   5.47                   H 17.9   G  0.15   U  9.9  
q 1.17550476 +/- 0.0124    Q 5.03280389 +/- 0.348
From 34 observations 2018 May 31-June 16; mean residual 0".90
Residuals in arcseconds: 
180531 F51  .62-  .04+    180613 L01  .38+  .14+    180614 587  .55-  .15+    
180612 F51  .58+  1.2-    180614 H21  .54+  .93+    180614 587  .46-  .46+    
180612 F51  .61+  1.3-    180614 H21  .11+  .96+    180614 J95  .00   .21+    
180612 F51  .52+  1.1-    180614 H21  .16+  1.0+    180614 J95  .58-  .30+    
180612 F51  .44+  1.4-    180614 H36  .08+  2.1+    180614 204  .93-  .14+    
180612 J95  .46+  .80-    180614 H36  .03-  .82+    180614 J95  .46-  .09-    
180612 J95  .04+  .14-    180614 I52  .10-  1.1+    180614 204  .13-  .15+    
180613 G58  1.5+  .31+    180614 I52  .41+  1.0+    180616 H21  .61+  2.5-    
180613 G58  .57+  .45-    180614 I52  .39-  1.3+    180616 H21  .69+  2.6-    
180613 G58  .66-  1.5+    180614 H36  .24+  1.5+    180616 H21  .33+  2.6-    
180613 L01  .11-  .83+    180614 587  .35+  .97+    
180613 L01  .45-  .80+    180614 587  .27-  .08+    

Ephemerides (geocentric):
Date (UTC) HH   RA              Dec         delta   r     elong  mag " sig PA
---- -- -- --  -------------   -----------  ------ ------ -----  --- ---- ---
2018 06 17 15  14 29 45.816   +61 02 39.00  1.1926 1.5261  87.0 20.9  .44  47
2018 06 17 16  14 29 48.976   +61 00 21.80  1.1927 1.5264  87.0 20.9  .44  49
2018 06 17 17  14 29 52.133   +60 58 04.56  1.1928 1.5267  87.1 20.9  .44  51
2018 06 17 18  14 29 55.288   +60 55 47.30  1.1929 1.5270  87.1 20.9  .45  52
2018 06 17 19  14 29 58.440   +60 53 30.00  1.1930 1.5273  87.1 20.9  .45  54
2018 06 17 20  14 30 01.591   +60 51 12.68  1.1931 1.5276  87.1 20.9  .46  56
2018 06 17 21  14 30 04.739   +60 48 55.33  1.1932 1.5279  87.1 20.9  .46  57
2018 06 17 22  14 30 07.885   +60 46 37.95  1.1933 1.5282  87.1 20.9  .47  59
2018 06 17 23  14 30 11.029   +60 44 20.55  1.1933 1.5285  87.2 20.9  .47  60
2018 06 18 00  14 30 14.171   +60 42 03.11  1.1934 1.5288  87.2 20.9  .48  62
2018 06 18 01  14 30 17.310   +60 39 45.65  1.1935 1.5291  87.2 20.9  .49  64
2018 06 18 02  14 30 20.448   +60 37 28.16  1.1936 1.5294  87.2 20.9  .49  65
2018 06 18 03  14 30 23.583   +60 35 10.64  1.1937 1.5297  87.2 20.9  .50  67
2018 06 18 04  14 30 26.716   +60 32 53.10  1.1938 1.5300  87.2 20.9  .51  68
2018 06 18 05  14 30 29.847   +60 30 35.52  1.1939 1.5302  87.3 20.9  .52  70
2018 06 18 06  14 30 32.976   +60 28 17.92  1.1940 1.5305  87.3 20.9  .53  71
2018 06 18 07  14 30 36.103   +60 26 00.29  1.1941 1.5308  87.3 20.9  .54  73
2018 06 18 08  14 30 39.228   +60 23 42.64  1.1942 1.5311  87.3 20.9  .55  74
2018 06 18 09  14 30 42.351   +60 21 24.95  1.1942 1.5314  87.3 20.9  .55  75
2018 06 18 10  14 30 45.471   +60 19 07.24  1.1943 1.5317  87.3 20.9  .57  77
2018 06 18 11  14 30 48.590   +60 16 49.51  1.1944 1.5320  87.4 20.9  .58  78
2018 06 18 12  14 30 51.706   +60 14 31.74  1.1945 1.5323  87.4 20.9  .59  79
2018 06 18 13  14 30 54.821   +60 12 13.95  1.1946 1.5326  87.4 20.9  .60  80
2018 06 18 14  14 30 57.933   +60 09 56.14  1.1947 1.5329  87.4 20.9  .61  82
2018 06 18 15  14 31 01.043   +60 07 38.29  1.1948 1.5332  87.4 20.9  .62  83
2018 06 18 16  14 31 04.152   +60 05 20.42  1.1949 1.5335  87.4 20.9  .63  84
2018 06 18 17  14 31 07.258   +60 03 02.53  1.1950 1.5338  87.5 20.9  .65  85
2018 06 18 18  14 31 10.363   +60 00 44.60  1.1951 1.5341  87.5 20.9  .66  86
2018 06 18 19  14 31 13.465   +59 58 26.65  1.1952 1.5344  87.5 20.9  .67  87
2018 06 18 20  14 31 16.565   +59 56 08.68  1.1953 1.5347  87.5 20.9  .69  88
2018 06 18 21  14 31 19.664   +59 53 50.68  1.1954 1.5350  87.5 20.9  .70  89
2018 06 18 22  14 31 22.760   +59 51 32.65  1.1955 1.5353  87.5 20.9  .71  90
2018 06 18 23  14 31 25.855   +59 49 14.60  1.1956 1.5356  87.6 20.9  .73  91
2018 06 19 00  14 31 28.947   +59 46 56.52  1.1957 1.5359  87.6 20.9  .74  92
2018 06 19 01  14 31 32.038   +59 44 38.42  1.1958 1.5362  87.6 20.9  .76  93
2018 06 19 02  14 31 35.127   +59 42 20.29  1.1959 1.5365  87.6 20.9  .78  94
2018 06 19 03  14 31 38.214   +59 40 02.13  1.1960 1.5368  87.6 20.9  .79  95
2018 06 19 04  14 31 41.299   +59 37 43.95  1.1961 1.5371  87.6 20.9  .81  96
2018 06 19 05  14 31 44.382   +59 35 25.75  1.1962 1.5374  87.6 20.9  .82  97
2018 06 19 06  14 31 47.463   +59 33 07.52  1.1963 1.5377  87.7 20.9  .84  98
2018 06 19 07  14 31 50.542   +59 30 49.26  1.1964 1.5380  87.7 20.9  .86  98
2018 06 19 08  14 31 53.620   +59 28 30.98  1.1965 1.5383  87.7 20.9  .88  99
2018 06 19 09  14 31 56.695   +59 26 12.68  1.1966 1.5386  87.7 20.9  .89 100
2018 06 19 10  14 31 59.769   +59 23 54.35  1.1967 1.5389  87.7 20.9  .91 101
2018 06 19 11  14 32 02.841   +59 21 36.00  1.1968 1.5392  87.7 20.9  .93 101
2018 06 19 12  14 32 05.911   +59 19 17.62  1.1969 1.5395  87.8 20.9  .95 102
2018 06 19 13  14 32 08.979   +59 16 59.22  1.1970 1.5398  87.8 20.9  .97 103
2018 06 19 14  14 32 12.045   +59 14 40.79  1.1971 1.5401  87.8 20.9  .99 103